Location: Gouy
(50.0008°N, 3.2556°E)
Time: 05:56:42
(UTC+00:00)

Cosmos 2151 Rocket - Pass Details

Date: 19 August 2024
Orbit: 615 x 637 km, 82.5° (Epoch: 07 September)

Event Time Altitude Azimuth Distance (km) Brightness Sun altitude
Rises 03:18:52 0° 146° (SE) 2,900 7.0 -12.6°
Reaches altitude 10° 03:21:39 10° 128° (SE) 2,004 6.4 -12.2°
Maximum altitude 03:24:41 18° 85° (E) 1,533 6.4 -11.9°
Drops below altitude 10° 03:27:45 10° 41° (NE) 2,025 7.6 -11.5°
Sets 03:30:34 0° 23° (NNE) 2,943 8.1 -11.1°
